Temperature
11 11 10 10 10 10 9 9 9 9 9 9 9 9 9 9 9 9 9 9 9 9 9 9 9 9 10 10 10 10 9 9 9 9 9 8 8 8 9 8 8 8 8
10 10 10 10 10 9 9 9 9 9 9 9 9 9 9 9 9 9 9 9 9 9 9 9 9 9 9 9 9 9 9 9 8 8 8 7 7 7 8 8 8 8 8
10 10 10 9 9 9 9 9 8 8 9 9 8 8 8 8 8 8 8 8 8 8 8 9 9 9 9 9 9 9 9 8 8 8 8 7 6 6 7 7 7 7 7
9 9 9 9 9 9 8 8 8 8 8 8 8 8 8 8 8 8 8 8 8 8 8 8 8 8 8 8 8 8 8 8 8 8 8 7 7 6 5 6 6 6 7
9 9 9 9 9 8 8 8 8 8 8 8 8 8 8 8 8 8 8 8 8 8 8 8 8 8 8 8 8 8 8 7 7 7 7 7 7 7 6 5 5 6 6
9 9 9 8 8 8 8 8 8 7 7 7 7 7 7 7 7 7 7 7 7 7 7 7 7 7 7 8 8 7 7 7 7 7 7 7 7 6 6 6 5 5 5
8 8 8 8 8 8 8 7 7 7 7 7 7 7 7 7 7 7 7 7 7 7 7 7 7 7 7 7 7 7 7 7 7 7 6 6 6 6 6 6 5 4 4
8 8 8 8 8 8 7 7 7 7 7 7 7 7 7 6 7 7 7 7 7 7 7 6 6 6 6 6 6 6 6 6 6 6 6 6 6 6 5 5 5 4 4
8 7 7 7 7 7 7 7 7 7 7 7 6 6 6 6 6 6 6 6 6 6 6 6 6 6 6 6 6 6 6 6 6 6 5 5 5 5 5 5 5 4 3
7 7 7 7 7 7 7 7 7 7 6 6 6 6 6 6 6 6 6 6 6 6 6 6 6 5 5 5 5 5 5 5 5 5 5 5 5 5 5 4 4 4 3
6 6 6 6 6 6 6 6 6 6 6 6 6 6 6 5 5 5 5 5 5 5 5 5 5 5 5 5 5 5 5 5 5 5 4 4 4 4 4 4 3 3 3
6 6 6 6 6 6 6 6 5 5 5 5 5 5 5 5 5 5 5 5 5 5 5 5 5 5 5 4 4 4 4 4 4 4 4 4 4 4 3 3 3 3 3
5 5 5 5 5 5 5 5 5 5 5 5 5 5 5 5 5 5 5 4 4 4 4 4 4 4 4 4 4 4 4 4 4 3 3 3 3 3 3 3 3 2 2
5 5 5 5 5 5 5 5 4 4 4 4 4 4 4 4 4 4 4 4 4 4 4 4 4 3 3 3 3 3 3 3 3 3 3 3 3 3 2 2 2 2 2
4 4 4 4 4 4 4 4 4 4 4 4 4 4 4 3 3 3 3 3 3 3 3 3 3 3 3 3 3 3 3 2 2 2 2 2 2 2 2 2 2 2 1
3 4 4 4 4 4 4 4 4 4 4 3 3 3 3 3 3 3 3 3 3 3 3 3 3 2 2 2 2 2 2 2 2 2 2 2 2 2 2 1 1 1 1
3 3 4 3 4 3 3 3 3 3 3 3 3 3 2 2 2 2 2 2 2 2 2 2 2 2 2 2 2 2 2 2 2 2 2 2 1 1 1 1 1 1 1
3 3 3 3 3 3 3 3 3 3 3 2 2 2 2 2 2 2 2 2 2 2 2 2 2 2 2 1 1 1 1 1 1 1 1 1 1 1 1 0 0 0 0
3 3 3 3 3 3 3 3 2 2 2 2 2 2 2 2 1 1 1 1 1 1 1 1 1 1 1 1 1 1 1 0 1 1 1 1 1 0 0 -0 -0 -0 -0
3 3 3 3 2 2 2 2 2 2 2 2 2 1 1 1 1 1 1 1 1 1 1 1 1 0 0 0 0 0 0 0 0 0 0 0 -0 -0 -0 -1 -1 -1 -1
2 2 2 2 2 2 2 2 2 1 1 1 1 1 1 1 1 1 1 0 0 0 0 0 0 -0 -0 -0 -0 -0 -1 -0 -0 -0 -0 -0 -0 -1 -1 -1 -1 -1 -1
1 2 2 1 1 1 1 1 1 1 1 1 0 0 0 0 0 0 0 0 -0 -0 -0 -0 -0 -0 -0 -1 -1 -1 -1 -1 -1 -1 -1 -1 -1 -1 -1 -1 -1 -1 -1
1 1 1 1 1 1 1 1 0 0 0 -0 -0 -0 -0 -0 -0 -0 -0 -0 -1 -1 -1 -1 -1 -1 -1 -1 -1 -1 -1 -1 -1 -1 -1 -1 -2 -2 -2 -2 -2 -2 -2
-0 0 0 0 0 -0 -0 -0 -0 -0 -0 -0 -1 -1 -1 -1 -1 -1 -1 -1 -1 -1 -1 -1 -1 -1 -1 -1 -1 -2 -2 -2 -2 -2 -2 -2 -2 -2 -2 -2 -2 -2 -2
-1 -1 -1 -1 -1 -1 -1 -1 -1 -1 -1 -1 -1 -1 -1 -1 -1 -1 -1 -1 -1 -2 -2 -2 -2 -2 -2 -2 -2 -2 -2 -2 -2 -2 -2 -2 -2 -2 -2 -3 -3 -3 -3
-1 -1 -1 -1 -1 -1 -1 -1 -1 -1 -1 -1 -2 -2 -2 -2 -2 -2 -2 -2 -2 -2 -2 -2 -2 -2 -2 -2 -2 -2 -2 -3 -3 -3 -3 -3 -3 -3 -3 -3 -3 -3 -3
Wind_Speed
6 4 4 5 5 5 5 5 4 4 4 3 3 3 3 2 2 2 4 4 4 4 4 3 3 3 3 4 4 4 4 3 3 3 2 3 2 1 1 2 2 2 3
4 4 4 5 5 6 6 5 5 4 4 3 3 2 2 2 2 2 2 4 4 4 4 4 4 4 4 4 4 4 3 2 2 3 3 1 2 2 1 1 1 1 2
6 5 5 5 6 6 6 5 5 4 4 4 3 3 2 1 1 1 1 2 4 4 4 3 4 4 4 5 5 5 5 4 1 2 4 3 2 1 2 1 0 1 0
5 5 5 6 6 6 5 5 5 4 4 5 5 5 3 2 2 2 2 1 3 3 3 3 4 4 3 4 5 4 4 5 4 2 1 2 3 2 1 1 1 1 1
6 6 6 6 5 4 5 5 5 4 4 4 5 5 3 2 2 1 2 1 1 2 3 3 3 3 3 4 4 4 4 3 3 3 2 1 1 2 2 2 2 2 2
5 5 5 4 4 3 3 4 5 4 4 4 4 5 5 4 4 2 2 1 1 1 1 2 3 3 3 3 4 4 5 4 3 2 2 3 2 2 2 3 3 3 3
5 5 5 5 5 5 4 5 5 5 4 4 4 4 4 5 5 4 3 3 2 1 2 2 2 2 3 3 3 4 4 4 4 3 2 2 2 2 2 2 2 3 3
3 4 5 6 6 6 5 5 5 5 5 5 5 4 4 3 3 3 4 4 3 2 2 2 3 2 3 3 3 3 3 3 3 3 2 2 2 2 2 2 2 2 3
3 4 4 4 5 5 5 5 5 5 5 5 5 4 4 3 3 2 2 3 2 2 2 2 2 2 2 3 3 2 2 3 3 3 2 2 2 2 2 2 3 3 4
2 3 3 3 3 3 3 3 3 4 4 4 4 4 4 3 3 3 3 2 2 2 3 2 2 2 1 2 2 2 2 3 2 2 2 2 2 1 1 2 2 3 4
2 2 2 3 3 3 3 3 3 3 3 4 4 3 3 3 4 3 3 3 3 3 3 3 3 3 2 2 2 2 3 3 2 2 2 3 2 2 2 2 2 2 3
2 2 2 3 3 3 3 3 3 3 3 3 4 4 3 3 3 3 3 3 3 3 3 3 3 3 2 2 2 2 2 3 3 2 3 3 2 2 2 2 2 3 3
2 2 2 2 2 2 2 3 3 3 2 3 4 3 3 3 3 3 3 3 3 3 3 3 3 3 2 2 2 2 2 2 2 3 3 3 3 3 2 2 3 3 3
2 2 1 1 1 1 2 2 2 2 3 3 4 3 3 3 3 3 3 3 3 4 3 3 3 3 3 3 3 2 2 2 2 2 2 3 3 4 3 3 3 3 2
1 1 1 1 0 0 1 1 1 1 3 4 4 3 3 3 3 3 3 3 3 3 3 2 2 2 2 3 3 3 3 2 2 2 2 3 4 4 4 3 3 2 2
2 1 1 1 1 1 1 1 2 2 3 4 3 3 4 4 3 3 3 3 2 2 2 2 2 2 2 3 4 3 3 3 3 2 3 3 3 3 3 4 5 5 4
2 2 2 2 2 2 2 2 2 2 3 3 3 4 4 3 3 3 3 2 2 2 2 2 2 2 3 4 3 3 2 2 3 3 3 3 2 2 2 4 5 6 7
2 2 2 2 1 1 1 2 2 3 3 3 3 4 4 3 3 3 3 2 2 2 2 2 2 2 2 3 3 3 2 2 3 3 4 4 3 3 3 3 3 4 5
2 2 2 1 1 1 1 3 3 2 2 2 3 3 4 3 3 2 2 2 2 1 2 2 2 2 3 3 3 3 2 2 3 3 3 3 4 5 5 3 3 5 5
2 1 1 2 1 1 2 3 3 2 2 2 2 2 3 3 3 3 2 1 2 2 2 2 2 3 3 4 4 3 2 2 2 2 3 4 5 6 5 3 4 5 5
3 2 2 2 1 1 3 3 2 1 1 1 2 2 2 2 2 2 1 1 1 1 1 1 1 2 3 4 4 4 2 3 3 2 2 3 5 6 6 5 4 6 5
3 3 2 2 2 2 3 2 0 0 1 2 2 2 1 1 1 2 1 1 2 2 1 1 1 2 2 3 4 5 5 4 3 3 3 3 5 6 6 5 5 7 5
3 3 2 2 2 2 2 2 0 0 1 1 1 1 1 1 1 2 2 1 1 2 2 2 2 3 2 3 5 5 5 5 3 3 4 4 4 4 4 5 6 5 2
3 3 2 2 2 2 2 1 0 1 1 1 1 1 1 1 1 1 2 2 2 3 3 3 3 3 3 3 2 3 3 3 2 2 2 3 3 3 3 4 4 2 2
3 2 2 1 1 2 2 2 1 1 1 0 0 1 1 1 1 1 2 3 3 4 4 4 4 4 4 5 5 3 2 2 2 1 1 1 1 1 2 2 2 2 2
3 3 2 2 1 1 2 2 1 0 1 0 1 1 1 1 1 1 2 4 4 6 6 6 5 5 6 7 6 6 5 4 3 1 1 2 2 3 3 3 3 3 3
Wind_Direction
216 192 182 168 154 147 149 161 165 164 152 153 157 166 178 189 201 184 180 176 175 169 157 168 160 158 164 167 157 147 140 128 128 101 72 26 21 43 129 121 123 115 112
205 190 174 160 161 160 160 166 171 171 168 172 171 171 174 187 203 174 161 168 170 173 168 164 171 167 162 156 161 149 144 142 140 137 128 82 1 353 23 62 135 142 108
200 190 176 170 165 167 172 176 181 179 169 161 143 119 99 77 98 175 191 184 173 169 163 159 165 165 169 172 175 168 152 166 193 162 149 155 201 255 307 305 118 121 100
187 182 180 180 180 183 179 174 175 177 170 164 160 156 168 183 208 198 193 184 167 163 161 156 162 164 168 172 174 170 160 163 178 195 159 156 159 173 234 299 303 284 250
189 185 187 189 184 181 179 174 165 175 172 171 170 167 175 178 162 158 167 176 158 152 158 162 162 167 172 171 168 168 167 170 179 183 175 138 123 165 184 236 264 284 263
192 189 187 175 170 170 169 167 162 172 175 173 172 170 174 164 155 163 179 196 175 165 155 165 160 167 167 165 170 172 170 174 172 177 182 173 181 194 186 221 249 264 269
188 182 172 170 172 173 175 174 169 176 179 175 178 180 181 177 176 180 182 188 179 179 203 177 168 175 172 168 161 165 167 171 172 175 192 192 212 198 195 200 242 269 281
174 175 178 177 176 175 175 177 179 183 181 179 181 177 174 182 185 179 172 177 183 188 180 164 155 158 164 163 157 164 168 167 168 176 188 198 216 204 194 201 213 270 286
166 170 171 171 175 178 181 182 180 177 176 175 171 171 170 174 171 168 163 164 167 163 146 143 136 131 143 156 155 168 176 171 173 176 187 208 220 203 203 194 195 208 263
155 156 161 164 170 173 170 163 168 172 167 167 174 175 175 175 168 167 164 156 156 150 145 137 138 145 151 145 159 174 181 170 182 180 184 210 227 201 202 200 218 221 235
170 167 160 155 144 132 140 147 150 147 154 165 169 162 166 167 166 170 170 165 155 148 149 152 151 157 161 157 158 176 175 172 187 201 198 215 209 212 222 216 225 241 234
157 150 142 125 123 132 145 152 155 159 167 163 157 161 161 163 162 166 167 160 156 152 150 147 148 151 149 145 159 172 178 175 188 208 206 219 217 217 226 224 235 246 239
114 106 105 112 138 154 154 151 158 166 163 155 150 150 153 162 165 166 158 150 151 149 148 153 158 162 162 161 168 172 187 191 200 211 213 217 209 228 235 241 246 255 259
130 118 110 114 145 154 154 154 159 161 156 149 145 149 159 159 156 150 144 149 155 153 157 167 171 173 174 175 179 181 192 198 217 230 229 221 215 221 225 237 237 242 253
132 158 178 169 148 140 153 149 150 149 151 147 149 157 145 130 125 127 136 141 147 154 159 161 168 177 185 192 187 188 194 196 217 244 251 241 237 239 242 250 240 231 244
233 221 204 199 198 202 205 178 165 164 148 147 155 148 133 126 126 131 131 133 139 150 153 170 182 199 215 212 208 205 195 200 210 235 263 265 256 248 263 269 265 256 249
267 245 222 220 215 211 203 192 182 152 139 143 146 142 137 138 145 144 136 144 154 154 164 184 191 211 228 223 217 224 210 207 222 232 244 260 259 273 249 268 279 275 272
274 273 259 240 228 201 181 156 135 139 139 139 144 144 141 142 145 147 156 162 163 170 182 193 207 217 237 236 233 232 224 222 231 234 235 234 238 242 251 252 266 273 273
285 270 254 236 188 165 145 125 120 128 139 148 151 154 150 151 153 162 172 174 172 182 199 205 207 217 245 249 241 241 210 231 244 246 244 238 240 254 266 260 262 276 280
346 345 22 74 87 110 123 122 135 142 168 177 167 156 152 159 172 185 187 185 183 195 199 211 211 214 234 246 249 252 216 233 252 259 246 248 255 262 266 249 244 264 276
13 29 59 78 89 97 116 121 125 169 195 155 145 142 145 158 169 166 171 173 179 179 195 213 236 235 242 247 250 253 238 224 236 248 256 256 266 269 270 270 251 260 276
25 35 63 54 43 79 107 107 134 272 111 129 134 137 136 142 149 146 158 169 171 180 202 220 267 266 255 257 255 259 261 257 239 242 250 262 275 279 283 283 276 282 292
25 30 72 64 36 41 88 121 249 62 100 123 143 151 143 137 147 159 177 189 189 201 224 223 244 264 265 263 264 267 269 271 271 252 260 271 283 297 298 292 293 297 284
22 25 53 65 31 18 27 24 288 131 121 133 164 169 154 141 148 187 199 201 206 216 228 234 245 260 268 264 260 255 262 262 271 270 261 276 288 296 294 300 301 291 265
11 25 35 43 10 7 1 349 351 96 101 120 206 169 170 188 217 242 231 230 231 227 227 228 229 236 253 258 263 268 257 244 242 264 276 276 277 280 286 291 288 286 285
14 21 15 5 347 351 346 341 344 125 156 234 270 245 232 242 249 269 298 286 267 266 259 249 246 251 255 263 264 267 268 268 253 269 246 257 261 261 267 274 282 280 273
Height
1477 1479 1480 1481 1482 1483 1485 1486 1488 1489 1490 1492 1493 1494 1494 1496 1497 1498 1499 1500 1502 1503 1504 1506 1507 1508 1510 1511 1512 1513 1515 1517 1518 1520 1521 1523 1524 1525 1526 1526 1527 1527 1528
1474 1475 1476 1477 1479 1480 1481 1483 1485 1486 1487 1489 1490 1491 1492 1493 1494 1495 1496 1497 1499 1500 1501 1503 1504 1506 1507 1508 1509 1511 1512 1513 1515 1517 1518 1520 1523 1522 1523 1524 1524 1525 1525
1470 1471 1473 1474 1476 1477 1479 1480 1482 1484 1485 1486 1488 1489 1489 1490 1491 1491 1493 1494 1496 1497 1498 1500 1501 1503 1504 1505 1506 1508 1509 1510 1513 1514 1515 1517 1517 1519 1520 1520 1521 1522 1522
1467 1469 1470 1471 1473 1474 1476 1478 1480 1481 1482 1484 1484 1485 1486 1486 1487 1489 1490 1491 1493 1494 1495 1496 1498 1499 1501 1502 1504 1505 1507 1508 1510 1511 1513 1514 1514 1515 1515 1517 1517 1518 1519
1465 1466 1467 1469 1470 1472 1473 1475 1477 1478 1479 1481 1481 1482 1483 1484 1485 1486 1487 1488 1489 1491 1492 1493 1495 1496 1498 1500 1501 1503 1504 1506 1507 1508 1509 1510 1512 1512 1512 1511 1513 1514 1515
1462 1463 1465 1466 1467 1469 1471 1472 1473 1475 1476 1478 1478 1479 1481 1482 1483 1483 1484 1485 1486 1488 1489 1490 1491 1493 1495 1497 1498 1500 1501 1502 1504 1505 1506 1507 1508 1508 1508 1508 1508 1509 1510
1458 1460 1461 1463 1464 1466 1468 1469 1470 1472 1473 1474 1476 1477 1478 1479 1480 1480 1481 1482 1483 1484 1486 1487 1489 1490 1492 1494 1496 1497 1498 1499 1500 1501 1502 1504 1505 1506 1506 1506 1505 1505 1505
1456 1457 1458 1460 1462 1463 1465 1466 1467 1469 1470 1471 1473 1474 1475 1476 1477 1478 1478 1479 1481 1482 1483 1484 1485 1487 1489 1491 1492 1494 1495 1496 1496 1498 1499 1500 1502 1502 1503 1503 1502 1501 1501
1454 1455 1457 1458 1460 1461 1462 1463 1465 1466 1467 1468 1470 1471 1472 1473 1474 1475 1476 1477 1478 1480 1481 1482 1483 1485 1486 1488 1489 1490 1491 1492 1493 1494 1495 1497 1498 1498 1498 1499 1499 1500 1497
1453 1454 1455 1456 1458 1459 1460 1461 1462 1463 1464 1465 1467 1468 1469 1471 1472 1473 1474 1475 1476 1477 1478 1479 1481 1482 1484 1485 1486 1487 1488 1489 1489 1490 1492 1493 1493 1493 1494 1495 1495 1495 1494
1452 1452 1453 1455 1456 1457 1458 1459 1460 1461 1462 1463 1464 1465 1467 1468 1470 1471 1471 1473 1474 1475 1476 1477 1478 1480 1481 1482 1483 1484 1485 1485 1486 1487 1488 1488 1489 1489 1490 1490 1490 1491 1490
1451 1452 1452 1453 1454 1455 1456 1457 1458 1458 1459 1461 1462 1463 1464 1465 1467 1468 1469 1470 1472 1473 1474 1475 1475 1476 1478 1479 1480 1480 1481 1482 1483 1483 1484 1484 1484 1485 1485 1485 1486 1486 1486
1450 1451 1451 1451 1452 1453 1454 1454 1455 1456 1457 1458 1459 1460 1461 1463 1464 1465 1467 1468 1470 1471 1471 1472 1473 1474 1475 1476 1476 1477 1478 1479 1479 1480 1480 1480 1480 1480 1481 1481 1481 1481 1481
1449 1449 1450 1450 1451 1451 1452 1452 1453 1454 1455 1456 1457 1458 1459 1460 1461 1463 1465 1466 1467 1468 1469 1470 1470 1471 1472 1473 1474 1474 1475 1475 1476 1476 1476 1476 1476 1476 1477 1477 1477 1477 1476
1448 1448 1448 1449 1449 1450 1450 1451 1451 1452 1453 1454 1455 1456 1457 1458 1459 1461 1462 1464 1465 1466 1467 1467 1468 1469 1469 1470 1471 1471 1471 1472 1472 1472 1472 1472 1472 1473 1473 1473 1472 1472 1471
1447 1447 1447 1447 1447 1448 1448 1449 1449 1450 1451 1452 1453 1454 1455 1456 1458 1459 1460 1461 1463 1464 1464 1465 1465 1466 1467 1467 1468 1468 1468 1468 1468 1468 1468 1469 1469 1468 1469 1469 1468 1468 1467
1445 1445 1445 1446 1446 1446 1446 1447 1448 1449 1449 1450 1451 1452 1453 1455 1456 1457 1458 1459 1460 1461 1461 1462 1463 1463 1464 1464 1465 1465 1465 1465 1465 1465 1465 1465 1465 1465 1464 1464 1464 1463 1463
1444 1444 1444 1444 1444 1445 1445 1446 1446 1447 1447 1448 1449 1450 1451 1452 1454 1455 1455 1456 1457 1458 1459 1459 1460 1460 1461 1461 1462 1462 1462 1462 1462 1462 1462 1461 1461 1460 1460 1460 1459 1458 1458
1442 1442 1443 1443 1443 1443 1443 1444 1445 1445 1446 1446 1447 1448 1449 1450 1451 1452 1453 1454 1454 1455 1456 1456 1457 1457 1458 1458 1458 1459 1459 1458 1458 1458 1458 1458 1457 1456 1456 1456 1455 1454 1453
1441 1441 1441 1441 1441 1442 1442 1443 1443 1444 1444 1445 1446 1447 1447 1448 1449 1450 1450 1451 1452 1452 1453 1454 1454 1454 1454 1455 1455 1455 1455 1455 1454 1454 1454 1454 1453 1453 1452 1452 1451 1449 1448
1440 1440 1440 1440 1440 1441 1441 1441 1442 1442 1443 1443 1444 1445 1445 1446 1447 1448 1448 1449 1449 1450 1450 1450 1451 1451 1451 1451 1452 1452 1452 1451 1451 1450 1450 1450 1449 1449 1448 1448 1446 1445 1444
1439 1439 1438 1438 1439 1439 1440 1440 1440 1441 1441 1442 1442 1442 1443 1444 1444 1445 1446 1446 1447 1447 1447 1447 1447 1448 1448 1448 1448 1448 1448 1448 1447 1447 1446 1446 1446 1445 1444 1443 1442 1441 1440
1439 1438 1438 1438 1438 1439 1439 1439 1439 1440 1440 1440 1440 1441 1441 1442 1442 1442 1443 1443 1444 1444 1444 1444 1444 1444 1444 1444 1444 1444 1444 1444 1443 1443 1442 1442 1442 1441 1440 1439 1438 1437 1436
1438 1438 1437 1437 1437 1437 1437 1438 1438 1438 1438 1438 1438 1439 1439 1439 1440 1440 1440 1440 1440 1441 1440 1440 1440 1440 1440 1440 1440 1440 1440 1440 1439 1439 1438 1438 1438 1437 1436 1435 1434 1433 1432
1438 1437 1436 1436 1436 1436 1436 1437 1437 1437 1436 1436 1437 1437 1437 1437 1437 1437 1438 1438 1438 1438 1438 1437 1438 1437 1437 1437 1437 1437 1436 1436 1436 1435 1435 1434 1434 1433 1432 1431 1430 1429 1428
1437 1436 1436 1435 1435 1435 1435 1435 1435 1435 1435 1435 1435 1435 1435 1435 1435 1435 1435 1435 1435 1435 1435 1435 1435 1435 1435 1434 1434 1434 1433 1433 1433 1432 1431 1430 1429 1429 1428 1427 1426 1425 1424